Date,TemperatureHighF,TemperatureAvgF,TemperatureLowF,DewpointHighF,DewpointAvgF,DewpointLowF,HumidityHigh,HumidityAvg,HumidityLow,PressureMaxIn,PressureMinIn,WindSpeedMaxMPH,WindSpeedAvgMPH,GustSpeedMaxMPH,PrecipitationSumIn
2013-1-1,28.4,24.2,14.5,21.0,15.7,6.0,82,73,67,29.95,29.84,14,2,14,0.00
2013-1-2,22.4,15.6,10.5,12.0,5.9,3.0,79,68,54,29.98,29.90,16,4,16,0.00
2013-1-3,29.4,23.5,14.0,23.0,16.4,5.0,89,78,68,30.01,29.88,19,7,19,0.00
2013-1-4,30.2,21.7,13.1,21.0,15.2,7.0,87,79,67,30.02,29.91,23,8,25,0.00
2013-1-5,33.4,27.6,19.1,30.0,22.4,15.0,95,85,73,30.05,29.77,22,6,22,0.00
2013-1-6,34.2,30.1,24.3,30.0,24.3,19.0,88,82,75,30.13,29.70,24,7,24,0.01
2013-1-7,33.8,25.5,16.5,24.0,19.2,13.0,94,81,63,30.16,29.91,25,6,27,0.00
2013-1-8,36.6,30.7,24.7,27.0,23.7,20.0,88,78,68,29.98,29.86,20,5,20,0.00
2013-1-9,48.9,39.5,29.0,33.0,24.9,14.0,80,61,30,30.29,29.84,24,8,24,0.00
2013-1-10,40.1,33.6,25.3,39.0,26.2,20.0,96,78,56,30.31,29.75,21,6,23,0.27
2013-1-11,52.5,48.1,39.7,51.0,45.5,39.0,96,91,84,29.75,29.48,25,8,25,0.59
2013-1-12,55.2,47.6,35.0,47.0,41.4,31.0,93,80,54,29.73,29.56,23,6,23,0.24
2013-1-13,35.0,28.6,15.5,34.0,25.8,9.0,97,91,81,30.03,29.61,24,7,26,0.12
2013-1-14,22.7,18.1,13.2,15.0,11.7,7.0,86,80,71,30.23,30.02,16,3,16,0.00
2013-1-15,28.7,21.2,13.4,19.0,14.5,9.0,92,80,59,30.20,29.88,10,0,10,0.00
2013-1-16,34.2,27.6,19.0,25.0,19.1,11.0,92,75,50,29.88,29.63,28,7,28,0.00
2013-1-17,33.1,27.6,20.2,28.0,16.6,9.0,85,66,54,30.16,29.82,23,4,26,0.00
2013-1-18,37.2,28.5,18.2,26.0,18.1,10.0,84,68,55,30.20,29.75,32,8,35,0.00
2013-1-19,46.5,40.4,34.8,35.0,28.8,17.0,75,65,46,29.76,29.52,27,11,28,0.00
2013-1-20,33.3,19.2,15.8,18.0,6.1,1.0,75,59,40,30.07,29.61,0,0,0,0.00
2013-1-21,16.3,10.3,5.5,7.0,-0.9,-6.0,86,63,52,30.01,29.87,0,0,0,0.00
2013-1-22,10.0,5.7,0.6,0.0,-4.0,-8.0,85,68,48,30.12,30.00,0,0,0,0.00
2013-1-23,20.0,14.2,7.7,14.0,3.9,-4.0,90,66,55,30.10,29.85,0,0,0,0.00
2013-1-24,17.5,14.7,10.7,12.0,4.8,-2.0,90,69,47,30.38,30.01,0,0,0,0.00
2013-1-25,25.7,20.3,15.8,19.0,13.1,5.0,89,77,62,30.17,29.76,0,0,0,0.00
2013-1-26,24.7,22.3,19.0,18.0,14.7,12.0,86,76,64,30.20,29.89,0,0,0,0.00
2013-1-27,34.1,26.8,20.6,33.0,20.6,14.0,95,80,69,30.19,29.77,0,0,0,0.00
2013-1-28,48.3,41.9,34.2,47.0,40.9,33.0,98,97,95,29.77,29.64,0,0,0,0.36
2013-1-29,58.0,54.5,40.4,56.0,52.8,39.0,99,95,86,29.69,29.17,0,0,0,1.13
2013-1-30,52.4,38.1,22.7,51.0,35.8,17.0,99,93,77,29.34,28.94,0,0,0,0.54
2013-1-31,22.6,15.0,8.0,18.0,9.0,3.0,91,81,66,29.87,29.35,0,0,0,0.00
2013-2-1,14.3,7.8,0.7,10.0,0.7,-5.0,90,77,62,30.12,29.88,0,0,0,0.00
2013-2-2,23.8,18.9,13.4,20.0,15.7,9.0,93,91,86,29.98,29.73,0,0,0,0.00
2013-2-3,22.1,15.3,8.9,15.0,8.9,3.0,88,79,64,29.85,29.73,0,0,0,0.00
2013-2-4,25.9,22.3,18.7,21.0,18.3,15.0,95,89,79,29.84,29.60,0,0,0,0.00
2013-2-5,29.3,24.8,17.8,27.0,20.9,15.0,95,89,75,29.83,29.57,0,0,0,0.01
2013-2-6,33.6,29.7,24.7,24.0,19.7,15.0,80,69,58,30.03,29.83,0,0,0,0.26
2013-2-7,40.2,33.2,28.6,33.0,27.4,23.0,98,83,64,29.93,29.59,0,0,0,0.21
2013-2-8,33.9,31.3,28.5,33.0,25.3,20.0,98,82,69,30.13,29.62,0,0,0,0.00
2013-2-9,35.0,28.6,20.6,24.0,20.9,16.0,90,76,65,30.17,29.90,0,0,0,0.01
2013-2-10,49.6,39.0,30.9,46.0,33.1,21.0,95,81,68,29.91,29.34,0,0,0,0.20
2013-2-11,49.2,34.2,28.9,45.0,23.6,19.0,85,68,60,29.78,29.35,0,0,0,0.00
2013-2-12,30.5,26.9,21.6,21.0,19.1,17.0,89,76,67,29.87,29.71,0,0,0,0.00
2013-2-13,43.7,31.4,20.2,30.0,24.3,17.0,94,80,55,29.72,29.49,0,0,0,0.00
2013-2-14,40.2,35.3,32.1,32.0,26.3,16.0,88,73,54,29.73,29.45,0,0,0,0.00
2013-2-15,32.0,27.1,22.4,25.0,16.5,9.0,89,68,50,29.93,29.73,0,0,0,0.00
2013-2-16,23.7,17.9,15.2,18.0,8.6,2.0,89,70,55,29.92,29.86,0,0,0,0.00
2013-2-17,28.0,21.2,12.6,12.0,8.0,2.0,81,61,37,30.00,29.88,0,0,0,0.01
2013-2-18,51.7,39.0,24.1,43.0,28.4,11.0,91,68,55,29.88,29.20,0,0,0,0.23
2013-2-19,34.1,17.6,13.0,32.0,11.2,4.0,93,79,68,29.90,29.28,0,0,0,0.07
2013-2-20,22.2,17.1,12.9,17.0,10.7,5.0,88,79,63,30.09,29.90,0,0,0,0.00
2013-2-21,25.7,23.6,21.2,18.0,16.8,14.0,86,78,73,30.13,29.78,0,0,0,0.00
2013-2-22,32.7,27.0,20.6,32.0,23.1,17.0,97,90,75,29.79,29.60,0,0,0,0.03
2013-2-23,27.2,25.5,23.9,22.0,17.8,14.0,85,76,64,29.73,29.67,0,0,0,0.00
2013-2-24,36.9,26.8,17.0,22.0,17.9,13.0,91,73,52,29.95,29.73,0,0,0,0.01
2013-2-25,40.4,31.5,21.3,25.0,22.2,18.0,92,73,53,29.96,29.75,0,0,0,0.00
2013-2-26,33.5,32.2,30.7,31.0,26.3,20.0,96,83,62,29.75,29.23,0,0,0,0.30
2013-2-27,34.2,32.3,31.5,33.0,30.5,30.0,98,97,94,29.40,29.24,0,0,0,0.54
2013-2-28,35.7,32.8,29.9,33.0,29.2,24.0,98,90,79,29.77,29.40,0,0,0,0.06
2013-3-1,32.2,28.8,24.5,27.0,22.3,17.0,95,80,69,29.91,29.77,0,0,0,0.01
2013-3-2,30.7,27.0,24.4,23.0,18.4,15.0,87,73,61,29.91,29.86,0,0,0,0.00
2013-3-3,30.6,25.4,17.9,22.0,16.2,10.0,90,72,44,29.91,29.84,0,0,0,0.02
2013-3-4,33.5,26.7,17.0,26.0,17.4,11.0,89,72,51,29.93,29.78,0,0,0,0.00
2013-3-5,31.4,29.0,26.3,27.0,25.1,23.0,97,90,74,29.78,29.53,0,0,0,0.00
2013-3-6,34.4,30.7,26.2,30.0,26.5,24.0,96,89,75,30.04,29.69,0,0,0,0.30
2013-3-7,35.9,31.6,24.0,28.0,23.7,19.0,91,77,56,30.20,30.04,0,0,0,0.11
2013-3-8,37.9,29.6,19.8,23.0,19.5,17.0,94,71,50,30.28,30.12,0,0,0,0.00
2013-3-9,42.7,36.1,27.7,33.0,26.2,19.0,77,70,56,30.12,29.68,0,0,0,0.00
2013-3-10,57.6,47.9,39.4,46.0,39.0,31.0,90,72,61,29.68,29.45,0,0,0,0.23
2013-3-11,50.2,41.3,32.0,48.0,38.3,28.0,95,90,85,29.56,29.33,0,0,0,0.09
2013-3-12,35.8,31.1,27.3,29.0,24.1,19.0,94,79,56,29.76,29.56,0,0,0,0.00
2013-3-13,29.8,26.2,23.5,22.0,14.3,9.0,88,64,44,30.08,29.76,0,0,0,0.00
2013-3-14,38.4,30.2,22.3,28.0,18.1,11.0,91,65,39,30.10,29.88,0,0,0,0.00
2013-3-15,44.7,35.4,28.8,37.0,31.2,26.0,96,88,64,29.88,29.51,0,0,0,0.23
2013-3-16,36.9,32.6,29.0,36.0,28.5,19.0,97,88,70,29.89,29.44,0,0,0,0.00
2013-3-17,35.2,30.5,27.5,22.0,18.6,15.0,74,64,53,29.99,29.82,0,0,0,0.00
2013-3-18,34.2,29.7,23.5,31.0,24.7,13.0,96,85,67,29.82,29.37,0,0,0,0.05
2013-3-19,34.2,25.5,18.4,14.0,10.7,8.0,79,57,36,29.83,29.57,0,0,0,0.00
2013-3-20,26.3,21.0,17.3,15.0,8.4,2.0,90,61,47,29.83,29.77,0,0,0,0.00
2013-3-21,29.7,23.2,16.8,15.0,12.0,5.0,85,66,47,29.80,29.75,0,0,0,0.00
2013-3-22,36.9,27.9,19.3,19.0,14.0,8.0,83,61,33,29.84,29.77,0,0,0,0.00
2013-3-23,38.1,30.5,23.1,23.0,19.9,17.0,88,69,49,29.90,29.79,0,0,0,0.00
2013-3-24,36.1,31.6,27.8,25.0,21.5,19.0,85,70,53,29.80,29.38,0,0,0,0.00
2013-3-25,35.0,32.0,27.4,29.0,24.8,21.0,92,78,64,29.80,29.42,0,0,0,0.01
2013-3-26,37.1,33.6,30.5,29.0,26.8,24.0,96,80,63,30.01,29.80,0,0,0,0.09
2013-3-27,40.7,35.0,29.1,26.0,21.6,15.0,86,62,39,30.09,30.02,0,0,0,0.00
2013-3-28,46.6,36.8,27.5,22.0,18.0,14.0,74,51,30,30.12,30.06,0,0,0,0.00
2013-3-29,49.6,39.3,28.8,25.0,18.8,13.0,84,50,27,30.11,30.01,0,0,0,0.00
2013-3-30,55.7,43.6,27.6,35.0,26.7,19.0,83,56,37,30.03,29.65,0,0,0,0.00
2013-3-31,57.7,47.3,37.1,43.0,33.5,23.0,94,62,35,29.65,29.46,0,0,0,0.00
2013-4-1,36.9,32.7,29.4,27.0,16.3,11.0,70,53,41,29.93,29.64,0,0,0,0.00
2013-4-2,40.2,33.0,27.3,18.0,10.9,3.0,65,43,25,30.08,29.93,0,0,0,0.00
2013-4-3,40.5,32.5,23.9,22.0,14.1,8.0,71,51,27,30.23,30.08,0,0,0,0.00
2013-4-4,56.0,41.6,26.5,21.0,16.4,14.0,69,42,21,30.12,29.74,0,0,0,0.00
2013-4-5,48.4,39.1,32.5,33.0,24.2,15.0,86,59,35,29.98,29.75,0,0,0,0.00
2013-4-6,67.3,51.0,33.0,40.0,28.6,22.0,72,45,29,29.95,29.42,0,0,0,0.00
2013-4-7,62.8,50.1,44.0,46.0,38.1,34.0,83,64,39,29.75,29.42,0,0,0,0.02
2013-4-8,68.0,51.0,41.2,53.0,41.9,33.0,92,72,51,29.78,29.46,0,0,0,0.19
2013-4-9,75.8,54.7,41.8,58.0,46.1,39.0,92,75,46,29.79,29.56,0,0,0,0.00
2013-4-10,51.4,44.8,40.3,47.0,42.6,38.0,96,92,82,29.74,29.57,0,0,0,0.27
2013-4-11,45.2,43.1,41.1,44.0,42.0,40.0,97,96,92,29.64,29.36,0,0,0,1.39
2013-4-12,43.4,39.0,36.0,41.0,33.8,26.0,97,83,66,29.64,29.36,0,0,0,0.04
2013-4-13,43.1,38.1,34.2,34.0,27.6,23.0,92,69,51,29.78,29.64,0,0,0,0.02
2013-4-14,63.5,49.2,37.6,47.0,36.5,26.0,76,63,49,29.82,29.54,0,0,0,0.00
2013-4-15,63.6,56.6,44.0,56.0,48.8,43.0,95,77,59,29.76,29.54,0,0,0,0.88
2013-4-16,47.4,44.1,40.9,43.0,35.9,30.0,95,75,56,30.05,29.73,0,0,0,0.38
2013-4-17,48.9,18.7,-11.6,40.0,11.2,-19.0,91,75,66,30.06,29.60,0,0,0,1.07
2013-4-18,12.6,8.5,1.8,9.0,4.1,-2.0,91,86,67,29.62,29.29,0,0,0,1.21
2013-4-19,6.0,3.6,2.0,2.0,-5.1,-8.0,87,70,61,29.69,29.29,0,0,0,0.03
2013-4-20,5.7,3.7,2.2,-1.0,-11.5,-22.0,91,53,32,30.25,29.69,0,0,0,0.00
2013-4-21,9.2,5.7,2.0,-4.0,-12.0,-20.0,63,47,28,30.35,30.16,0,0,0,0.00
2013-4-22,16.8,10.8,3.9,-1.0,-8.0,-18.0,80,48,25,30.16,29.89,0,0,0,0.00
2013-4-23,17.9,11.9,6.0,10.0,2.2,-4.0,92,70,48,29.89,29.66,0,0,0,0.52
2013-4-24,11.8,7.9,5.6,4.0,-2.6,-11.0,92,67,41,29.95,29.67,0,0,0,0.03
2013-4-25,12.3,10.0,7.7,1.0,-3.8,-10.0,73,57,39,30.15,29.90,0,0,0,0.00
2013-4-26,18.7,13.0,7.0,3.0,-2.1,-7.0,72,54,36,30.19,30.08,0,0,0,0.00
2013-4-27,22.4,17.0,9.7,6.0,0.5,-11.0,85,54,25,30.13,29.81,0,0,0,0.00
2013-4-28,17.9,16.1,13.6,12.0,9.6,5.0,91,79,61,29.81,29.61,0,0,0,0.07
2013-4-29,24.0,19.5,13.5,14.0,9.2,3.0,93,69,46,29.75,29.64,0,0,0,0.00
2013-4-30,29.0,23.8,18.5,13.0,9.1,2.0,74,57,33,29.78,29.65,0,0,0,0.00
2013-5-1,28.8,24.9,19.5,13.0,7.0,-2.0,77,51,29,29.96,29.78,0,0,0,0.00
2013-5-2,23.3,17.7,12.0,12.0,7.8,3.0,87,69,49,30.00,29.91,0,0,0,0.00
2013-5-3,23.6,17.7,11.8,14.0,9.5,4.0,92,75,51,29.90,29.74,0,0,0,0.00
2013-5-4,26.6,23.0,19.3,8.0,1.4,-5.0,56,41,28,29.82,29.75,0,0,0,0.00
2013-5-5,23.5,20.2,16.8,6.0,1.0,-6.0,60,46,29,29.82,29.74,0,0,0,0.00
2013-5-6,25.4,21.1,16.8,7.0,1.5,-8.0,63,45,24,29.82,29.74,0,0,0,0.00
2013-5-7,26.0,21.9,16.4,10.0,3.7,-3.0,74,49,31,29.84,29.77,0,0,0,0.00
2013-5-8,27.4,23.7,18.4,12.0,4.2,-3.0,73,46,30,29.84,29.77,0,0,0,0.00
2013-5-9,28.6,22.8,17.9,18.0,10.2,-2.0,89,64,29,29.78,29.62,0,0,0,0.21
2013-5-10,21.8,15.9,12.7,18.0,12.9,9.0,96,92,85,29.75,29.55,0,0,0,0.15
2013-5-11,20.9,15.3,13.3,13.0,9.1,2.0,96,81,59,29.81,29.63,0,0,0,0.02
2013-5-12,16.2,14.5,13.2,5.0,-1.4,-9.0,66,52,35,29.91,29.81,0,0,0,0.00
2013-5-13,22.4,17.4,10.3,6.0,-4.0,-17.0,81,44,21,29.98,29.86,0,0,0,0.00
2013-5-14,32.9,26.2,18.9,12.0,2.3,-8.0,50,38,25,29.85,29.49,0,0,0,0.00
2013-5-15,29.2,27.2,23.2,14.0,6.1,-2.0,70,43,29,29.64,29.44,0,0,0,0.00
2013-5-16,31.2,25.9,19.7,16.0,4.1,-6.0,85,45,21,29.78,29.61,0,0,0,0.00
2013-5-17,31.6,26.0,21.6,21.0,9.9,3.0,84,54,35,29.86,29.75,0,0,0,0.00
2013-5-18,31.2,26.9,21.7,19.0,10.9,4.0,82,53,44,29.89,29.76,0,0,0,0.00
2013-5-19,31.7,27.2,22.6,16.0,11.3,6.0,74,55,36,29.77,29.56,0,0,0,0.00
2013-5-20,34.1,29.8,24.7,21.0,14.6,6.0,82,57,31,29.65,29.54,0,0,0,0.00
2013-5-21,32.3,27.2,21.8,21.0,17.0,13.0,90,70,49,29.59,29.48,0,0,0,0.60
2013-5-22,29.0,26.5,24.4,21.0,17.3,10.0,86,71,47,29.54,29.44,0,0,0,0.16
2013-5-23,24.9,17.5,15.3,17.0,13.2,9.0,93,87,71,30.03,29.52,0,0,0,0.17
2013-5-24,21.0,17.8,14.7,13.0,6.6,-1.0,87,66,41,30.21,30.03,0,0,0,0.00
2013-5-25,23.7,19.3,14.7,12.0,9.3,3.0,90,69,48,30.19,30.08,0,0,0,0.00
2013-5-26,25.2,21.6,17.5,13.0,5.9,-3.0,85,56,31,30.10,29.93,0,0,0,0.00
2013-5-27,23.4,21.1,17.9,20.0,16.1,10.0,91,85,65,29.93,29.68,0,0,0,0.33
2013-5-28,31.1,27.0,22.3,23.0,20.4,16.0,92,80,63,29.73,29.58,0,0,0,0.94
2013-5-29,33.0,28.5,23.2,22.0,17.5,13.0,89,67,46,29.77,29.61,0,0,0,0.06
2013-5-30,35.5,31.1,25.2,21.0,18.2,15.0,76,62,46,29.79,29.68,0,0,0,0.00
2013-5-31,32.2,29.4,25.7,24.0,21.6,19.0,86,76,64,29.75,29.55,0,0,0,0.22
2013-6-1,32.2,29.0,25.2,24.0,20.6,17.0,88,74,56,29.62,29.50,0,0,0,0.09
2013-6-2,25.5,21.3,18.8,21.0,14.2,8.0,88,78,62,29.86,29.53,0,0,0,0.00
2013-6-3,27.4,23.0,18.0,16.0,10.2,6.0,90,62,42,29.94,29.85,0,0,0,0.00
2013-6-4,30.4,25.4,19.1,15.0,9.9,2.0,82,56,32,30.00,29.91,0,0,0,0.00
2013-6-5,32.0,28.2,23.8,15.0,8.7,4.0,72,47,33,29.95,29.75,0,0,0,0.00
2013-6-6,30.4,26.9,24.3,19.0,13.6,4.0,81,61,42,29.75,29.68,0,0,0,0.01
2013-6-7,30.3,26.9,23.5,19.0,14.9,8.0,83,64,44,29.76,29.69,0,0,0,0.00
2013-6-8,32.9,28.5,23.4,18.0,13.1,9.0,76,56,40,29.84,29.73,0,0,0,0.00
2013-6-9,33.7,30.3,26.0,23.0,15.4,7.0,86,58,35,29.84,29.64,0,0,0,0.07
2013-6-10,33.0,30.4,27.9,28.0,24.4,19.0,92,82,62,29.68,29.56,0,0,0,0.73
2013-6-11,37.9,32.3,25.8,27.0,22.5,16.0,94,72,43,29.76,29.65,0,0,0,0.06
2013-6-12,40.2,34.1,28.9,29.0,26.0,23.0,90,76,52,29.74,29.43,0,0,0,0.65
2013-6-13,32.0,29.2,26.3,26.0,20.9,16.0,93,75,54,29.85,29.34,0,0,0,0.11
2013-6-14,34.2,29.8,25.0,22.0,19.9,16.0,89,71,54,29.94,29.82,0,0,0,0.00
2013-6-15,34.2,31.6,27.2,26.0,23.4,21.0,83,75,63,29.90,29.71,0,0,0,0.03
2013-6-16,34.9,32.0,29.5,25.0,21.0,15.0,82,67,49,29.73,29.68,0,0,0,0.00
2013-6-17,39.3,34.5,28.5,26.0,17.0,5.0,87,56,26,29.77,29.68,0,0,0,0.02
2013-6-18,33.9,30.2,26.3,24.0,20.8,15.0,87,71,58,29.88,29.70,0,0,0,0.01
2013-6-19,35.7,30.9,25.8,16.0,11.9,5.0,64,48,30,29.99,29.87,0,0,0,0.00
2013-6-20,38.3,33.2,25.8,23.0,16.8,10.0,72,54,36,30.01,29.93,0,0,0,0.00
2013-6-21,38.9,33.1,28.3,27.0,22.1,16.0,86,68,42,30.00,29.77,0,0,0,0.22
2013-6-22,38.9,34.5,30.1,28.0,25.1,22.0,83,72,56,29.92,29.81,0,0,0,0.00
2013-6-23,37.4,33.3,29.3,26.0,22.2,17.0,86,68,49,29.88,29.76,0,0,0,0.00
2013-6-24,39.7,34.7,29.8,28.0,24.9,21.0,87,71,52,29.91,29.77,0,0,0,0.00
2013-7-8,40.7,38.0,35.0,34.0,30.4,28.0,87,77,64,29.89,29.77,0,0,0,0.31
2013-7-9,41.0,38.1,33.8,35.0,32.1,29.0,89,80,67,29.82,29.71,0,0,0,0.49
2013-7-10,39.9,36.8,31.9,34.0,27.4,19.0,88,72,52,29.82,29.66,0,0,0,0.00
2013-7-11,38.6,34.8,30.3,29.0,22.4,12.0,90,66,38,29.92,29.81,0,0,0,0.00
2013-7-12,40.6,36.1,30.8,29.0,22.9,13.0,87,63,36,29.97,29.89,0,0,0,0.00
2013-7-13,41.9,37.2,30.8,27.0,23.9,20.0,82,62,44,30.00,29.92,0,0,0,0.00
2013-7-14,40.7,37.2,32.9,28.0,24.8,17.0,86,65,42,30.01,29.96,0,0,0,0.00
2013-7-15,43.7,39.8,34.5,36.0,30.4,26.0,85,72,53,30.10,30.01,0,0,0,0.00
2013-7-16,44.8,41.0,35.5,35.0,29.1,23.0,87,66,48,30.15,30.07,0,0,0,0.00
2013-7-17,45.2,41.5,36.2,32.0,28.2,24.0,80,63,47,30.14,30.00,0,0,0,0.00
2013-7-18,45.4,42.0,36.4,33.0,28.8,23.0,80,62,46,30.00,29.79,0,0,0,0.00
2013-7-19,46.9,42.3,36.7,34.0,28.5,21.0,82,62,39,29.79,29.59,0,0,0,0.00
2013-7-20,42.4,39.5,35.8,31.0,25.3,18.0,76,60,43,29.73,29.57,0,0,0,0.00
2013-7-21,39.5,36.2,32.3,27.0,22.2,15.0,82,60,40,29.76,29.64,0,0,0,0.06
2013-7-22,41.9,37.0,31.1,31.0,27.1,21.0,89,72,47,29.67,29.56,0,0,0,0.39
2013-7-23,38.9,35.8,32.2,30.0,24.8,20.0,81,67,59,29.76,29.49,0,0,0,0.00
2013-7-24,36.2,32.3,27.6,25.0,18.6,12.0,76,60,44,29.86,29.75,0,0,0,0.00
2013-7-25,39.7,35.0,28.8,25.0,20.2,14.0,85,59,38,29.93,29.84,0,0,0,0.00
2013-7-26,38.6,34.9,30.9,32.0,25.3,21.0,86,72,52,29.87,29.69,0,0,0,0.05
2013-7-27,35.6,33.3,30.3,31.0,24.6,17.0,93,74,57,29.72,29.64,0,0,0,0.01
2013-7-28,33.4,30.3,27.3,23.0,18.8,12.0,84,66,47,29.81,29.67,0,0,0,0.00
2013-7-29,37.9,33.9,29.6,26.0,22.2,18.0,79,65,51,30.00,29.81,0,0,0,0.00
2013-7-30,39.2,35.5,29.7,29.0,25.1,20.0,89,70,49,30.02,29.89,0,0,0,0.00
2013-7-31,37.7,35.6,33.0,34.0,31.6,27.0,92,87,76,29.89,29.77,0,0,0,0.01
2013-8-1,40.7,36.8,33.2,31.0,24.3,14.0,92,66,35,29.80,29.74,0,0,0,0.01
2013-8-2,42.7,35.9,31.7,35.0,29.7,22.0,90,81,55,29.79,29.65,0,0,0,0.82
2013-8-3,39.9,36.5,32.6,34.0,25.7,15.0,93,70,39,29.91,29.75,0,0,0,0.00
2013-8-4,36.2,33.4,30.8,28.0,21.9,15.0,90,67,46,30.00,29.91,0,0,0,0.00
2013-8-5,38.5,34.7,29.5,28.0,24.2,19.0,80,68,58,29.93,29.72,0,0,0,0.00
2013-8-6,41.1,37.0,32.2,34.0,30.3,27.0,90,80,63,29.74,29.67,0,0,0,0.31
2013-8-7,43.2,15.8,-77.2,36.0,10.5,-82.0,92,81,64,29.71,29.61,0,0,0,1.30
2013-8-8,5.2,-6.2,-20.6,-3.0,-15.1,-26.0,84,69,50,29.79,29.70,0,0,0,0.00
2013-8-9,11.1,2.9,-6.0,2.0,-8.7,-15.0,83,62,41,29.80,29.72,0,0,0,0.00
2013-8-10,16.0,12.2,7.4,6.0,-1.0,-8.0,86,59,37,29.89,29.79,0,0,0,0.00
2013-8-11,14.6,11.5,8.0,3.0,-2.6,-9.0,74,56,39,29.88,29.78,0,0,0,0.00
2013-8-12,19.8,14.7,10.2,10.0,5.1,1.0,88,70,48,29.80,29.64,0,0,0,0.24
2013-8-13,14.1,11.4,8.5,8.0,1.0,-5.0,88,67,48,29.91,29.66,0,0,0,0.00
2013-8-14,15.0,11.5,7.1,5.0,-1.2,-5.0,82,60,44,30.00,29.89,0,0,0,0.00
2013-8-15,17.9,12.9,6.5,6.0,1.9,-3.0,86,66,43,29.97,29.89,0,0,0,0.00
2013-8-16,21.1,16.2,10.2,7.0,1.7,-7.0,81,57,34,29.98,29.90,0,0,0,0.00
2013-8-17,21.2,16.7,10.7,8.0,3.2,-5.0,83,60,36,30.04,29.95,0,0,0,0.00
2013-8-18,19.2,15.0,11.5,7.0,2.3,-5.0,84,61,37,29.98,29.87,0,0,0,0.00
2013-8-19,23.1,18.2,11.7,11.0,5.7,-1.0,85,62,39,29.92,29.83,0,0,0,0.00
2013-8-20,24.2,19.2,13.7,13.0,8.1,2.0,87,66,43,29.92,29.83,0,0,0,0.00
2013-8-21,24.5,19.9,14.0,13.0,8.0,2.0,87,64,43,29.90,29.76,0,0,0,0.00
2013-8-22,19.7,17.7,13.4,14.0,11.6,7.0,89,81,65,29.89,29.75,0,0,0,1.21
2013-8-23,21.9,18.2,14.5,13.0,6.2,-5.0,89,65,34,29.97,29.83,0,0,0,0.00
2013-8-24,24.6,20.0,12.5,10.0,3.4,-3.0,83,53,32,30.07,29.94,0,0,0,0.00
2013-8-25,22.6,18.0,12.9,8.0,4.3,0.0,81,59,40,30.04,29.91,0,0,0,0.00
2013-8-26,26.1,20.4,9.7,14.0,8.8,-1.0,74,64,51,29.95,29.79,0,0,0,0.00
2013-8-27,28.5,23.8,17.6,15.0,11.5,7.0,79,63,43,29.78,29.60,0,0,0,0.00
2013-8-28,22.7,20.9,18.5,18.0,14.1,6.0,90,79,56,29.81,29.60,0,0,0,0.00
2013-8-29,26.9,22.7,16.3,18.0,13.5,3.0,91,72,40,29.85,29.75,0,0,0,0.00
2013-8-30,31.7,25.4,18.7,20.0,15.3,7.0,88,70,48,29.75,29.54,0,0,0,0.07
2013-8-31,27.1,23.6,19.5,22.0,17.8,13.0,89,82,69,29.65,29.55,0,0,0,0.57
2013-9-1,24.2,21.6,19.6,18.0,14.7,11.0,91,79,61,29.56,29.46,0,0,0,0.00
2013-9-2,26.5,22.9,19.2,18.0,14.1,11.0,87,72,56,29.75,29.50,0,0,0,0.00
2013-9-3,24.7,21.1,16.8,16.0,10.3,4.0,85,66,47,29.85,29.72,0,0,0,0.00
2013-9-4,28.2,22.7,17.5,15.0,10.1,-4.0,88,64,27,29.90,29.81,0,0,0,0.00
2013-9-5,26.5,22.5,18.5,16.0,9.6,2.0,83,62,39,30.02,29.87,0,0,0,0.00
2013-9-6,29.2,23.3,16.4,15.0,9.3,3.0,72,58,39,30.03,29.81,0,0,0,0.00
2013-9-7,32.2,25.2,19.3,21.0,14.9,8.0,84,69,39,29.81,29.68,0,0,0,0.03
2013-9-8,24.5,22.2,20.2,18.0,13.5,12.0,85,72,64,29.78,29.70,0,0,0,0.00
2013-9-9,32.7,26.3,19.1,19.0,15.0,12.0,82,66,46,29.75,29.61,0,0,0,0.00
2013-9-10,31.7,26.1,20.3,17.0,8.9,0.0,80,53,28,29.81,29.67,0,0,0,0.00
2013-9-11,30.2,24.0,19.8,17.0,12.1,2.0,79,65,33,29.83,29.72,0,0,0,0.00
2013-9-12,25.6,21.8,18.1,13.0,7.1,-1.0,76,57,36,29.81,29.65,0,0,0,0.08
2013-9-13,19.2,16.8,13.4,8.0,4.3,-1.0,75,61,47,29.92,29.80,0,0,0,0.00
2013-9-14,23.4,17.5,12.0,9.0,1.9,-7.0,89,57,29,29.97,29.82,0,0,0,0.00
2013-9-15,19.0,15.9,12.6,13.0,7.3,1.0,90,72,55,29.90,29.75,0,0,0,0.12
2013-9-16,22.1,19.2,15.3,16.0,11.7,6.0,91,76,56,30.12,29.90,0,0,0,0.00
2013-9-17,24.4,19.2,13.1,12.0,8.0,2.0,89,66,44,30.13,29.91,0,0,0,0.00
2013-9-18,29.7,23.1,19.1,17.0,10.7,6.0,77,62,47,29.90,29.73,0,0,0,0.00
2013-9-19,28.1,24.9,21.2,23.0,20.3,17.0,90,87,79,29.79,29.62,0,0,0,1.45
2013-9-20,27.7,25.5,21.9,21.0,17.9,12.0,86,76,64,29.63,29.54,0,0,0,0.00
2013-9-21,24.5,22.5,19.6,16.0,11.3,7.0,79,65,50,29.69,29.52,0,0,0,0.00
2013-9-22,20.7,18.6,16.1,12.0,8.0,1.0,80,67,48,29.84,29.69,0,0,0,0.00
2013-9-23,26.2,19.8,13.8,12.0,8.2,2.0,88,65,40,29.90,29.83,0,0,0,0.00
2013-9-24,25.6,22.3,18.2,10.0,5.5,1.0,73,52,36,29.84,29.72,0,0,0,0.00
2013-9-25,26.7,21.1,15.5,16.0,10.3,1.0,87,68,38,29.75,29.68,0,0,0,0.00
2013-9-26,30.2,22.8,17.1,17.0,10.2,-5.0,91,66,25,29.88,29.74,0,0,0,0.00
2013-9-27,29.9,24.2,17.6,12.0,6.3,-6.0,77,51,25,29.98,29.87,0,0,0,0.00
2013-9-28,31.6,25.5,18.7,16.0,11.2,5.0,88,59,35,29.92,29.71,0,0,0,0.00
2013-9-29,25.7,20.2,17.3,16.0,10.9,5.0,89,71,53,29.79,29.70,0,0,0,0.14
2013-9-30,27.6,21.8,15.6,16.0,10.5,0.0,92,68,33,29.78,29.68,0,0,0,0.01
2013-10-1,30.1,25.6,20.3,21.0,17.3,12.0,92,75,52,29.79,29.69,0,0,0,0.00
2013-10-2,30.5,26.3,22.2,22.0,13.1,5.0,88,63,37,29.87,29.74,0,0,0,0.00
2013-10-3,29.1,24.9,21.9,22.0,20.0,15.0,90,86,68,29.77,29.66,0,0,0,0.34
2013-10-4,29.7,25.8,20.7,23.0,19.1,15.0,88,80,59,29.78,29.70,0,0,0,0.08
2013-10-5,30.7,25.8,22.3,24.0,20.6,17.0,91,85,67,29.74,29.56,0,0,0,0.42
2013-10-6,22.7,18.4,14.8,20.0,10.6,0.0,91,76,46,29.55,29.43,0,0,0,0.27
2013-10-7,22.9,17.7,14.1,12.0,8.7,1.0,86,72,43,29.88,29.53,0,0,0,0.00
2013-10-8,30.0,22.4,14.8,14.0,9.4,2.0,89,63,32,30.00,29.90,0,0,0,0.00
2013-10-9,27.9,21.6,15.0,12.0,7.6,-1.0,87,60,30,30.05,29.94,0,0,0,0.00
2013-10-10,28.2,22.1,15.7,14.0,9.5,1.0,89,64,36,29.97,29.84,0,0,0,0.00
2013-10-11,28.2,22.5,16.2,13.0,7.8,-1.0,87,58,32,29.89,29.77,0,0,0,0.00
2013-10-12,31.1,24.6,18.3,21.0,13.3,8.0,84,66,43,29.92,29.77,0,0,0,0.01
2013-10-13,22.4,19.4,15.9,12.0,6.5,0.0,85,61,43,30.16,29.92,0,0,0,0.00
2013-10-14,24.5,19.4,15.5,12.0,8.2,1.0,88,66,41,30.18,29.94,0,0,0,0.00
2013-10-15,24.2,20.7,16.8,20.0,15.0,10.0,90,82,72,29.94,29.58,0,0,0,0.15
2013-10-16,20.1,17.6,14.8,12.0,10.5,8.0,86,77,69,29.72,29.62,0,0,0,0.00
2013-10-17,18.4,16.1,13.2,12.0,10.3,8.0,89,82,69,29.69,29.57,0,0,0,0.15
2013-10-18,19.5,14.7,11.8,10.0,7.5,4.0,90,77,57,29.74,29.62,0,0,0,0.00
2013-10-19,19.0,15.7,13.1,10.0,4.2,-5.0,87,65,38,29.69,29.56,0,0,0,0.00
2013-10-20,21.5,17.4,13.0,9.0,4.9,1.0,85,62,43,29.67,29.51,0,0,0,0.01
2013-10-21,19.0,15.7,11.9,14.0,4.2,-4.0,86,64,46,29.72,29.57,0,0,0,0.01
2013-10-22,14.3,10.8,7.5,7.0,1.7,-9.0,89,71,38,29.74,29.65,0,0,0,0.00
2013-10-23,14.1,11.7,9.0,9.0,3.7,-5.0,94,75,46,29.75,29.61,0,0,0,0.22
2013-10-24,14.3,12.1,9.3,7.0,1.3,-5.0,90,65,46,30.02,29.75,0,0,0,0.04
2013-10-25,17.0,13.0,9.0,5.0,-0.7,-8.0,82,58,37,30.16,29.86,0,0,0,0.00
2013-10-26,18.4,14.5,12.7,3.0,-0.5,-2.0,62,54,46,29.86,29.61,0,0,0,0.00
2013-10-27,19.0,14.9,10.4,7.0,0.2,-7.0,87,57,34,29.85,29.74,0,0,0,0.00
2013-10-28,20.4,16.5,9.3,11.0,4.4,-5.0,85,63,36,30.11,29.93,0,0,0,0.00
2013-10-29,20.6,15.5,11.0,9.0,6.3,2.0,87,71,47,30.15,29.92,0,0,0,0.00
2013-10-30,24.2,19.2,14.4,21.0,13.7,7.0,92,83,69,29.92,29.56,0,0,0,1.50
2013-10-31,24.2,21.8,17.1,21.0,18.1,12.0,91,89,83,29.56,28.98,0,0,0,1.42
2013-11-1,17.5,16.3,15.1,14.0,9.8,4.0,92,79,62,29.49,29.10,0,0,0,0.12
2013-11-2,16.7,15.6,13.6,13.0,10.8,6.0,92,85,69,29.87,29.47,0,0,0,0.43
2013-11-3,16.9,15.0,12.8,11.0,7.9,2.0,92,78,56,30.09,29.88,0,0,0,0.02
2013-11-4,19.6,16.8,13.4,9.0,6.6,2.0,81,67,52,30.10,29.94,0,0,0,0.00
2013-11-5,20.7,18.6,16.4,14.0,10.0,7.0,90,72,62,30.08,29.79,0,0,0,0.00
2013-11-6,20.7,17.0,13.4,16.0,10.1,-1.0,90,79,56,29.88,29.57,0,0,0,0.90
2013-11-7,15.5,13.1,10.4,6.0,1.9,-5.0,84,64,44,30.00,29.88,0,0,0,0.00
2013-11-8,15.6,12.9,9.2,7.0,2.7,-3.0,89,68,48,30.08,29.80,0,0,0,0.00
2013-11-9,21.9,18.0,14.7,6.0,3.1,-3.0,65,54,41,29.82,29.64,0,0,0,0.00
2013-11-10,16.0,14.4,12.2,6.0,2.0,-3.0,75,60,46,30.08,29.82,0,0,0,0.00
2013-11-11,16.5,12.4,7.3,10.0,5.0,2.0,93,77,56,30.19,29.85,0,0,0,0.25
2013-11-12,8.8,6.9,4.4,5.0,0.9,-6.0,94,80,57,30.40,30.19,0,0,0,0.01
2013-11-13,10.5,8.4,2.5,1.0,-2.2,-6.0,85,65,53,30.34,29.97,0,0,0,0.05
2013-11-14,16.9,13.4,9.8,1.0,-1.6,-5.0,68,54,41,29.97,29.73,0,0,0,0.24
2013-11-15,17.0,14.8,12.9,5.0,1.6,-2.0,68,58,50,29.80,29.72,0,0,0,0.00
2013-11-16,21.5,18.4,13.8,17.0,12.7,5.0,87,82,69,29.75,29.40,0,0,0,0.10
2013-11-17,23.2,20.1,15.6,18.0,13.1,5.0,89,78,57,29.48,28.97,0,0,0,0.43
2013-11-18,16.2,13.8,12.0,8.0,3.2,-2.0,76,66,55,29.99,29.47,0,0,0,0.00
2013-11-19,16.7,13.2,10.4,4.0,1.9,-2.0,76,64,48,30.11,29.99,0,0,0,0.00
2013-11-20,14.3,12.0,9.7,9.0,2.3,-3.0,86,69,51,30.10,29.88,0,0,0,0.08
2013-11-21,16.2,15.0,13.0,13.0,9.8,6.0,94,84,72,29.95,29.89,0,0,0,0.39
2013-11-22,15.5,11.6,8.3,12.0,6.5,2.0,94,84,72,30.19,29.91,0,0,0,0.03
2013-11-23,9.5,6.9,5.1,3.0,-1.7,-9.0,91,71,53,30.39,30.13,0,0,0,0.00
2013-11-24,8.0,6.2,5.1,1.0,-7.6,-23.0,88,57,24,30.44,30.17,0,0,0,0.00
2013-11-25,9.1,7.6,5.6,5.0,-1.7,-7.0,90,69,52,30.17,29.85,0,0,0,0.00
2013-11-26,9.5,8.3,7.4,5.0,2.1,-7.0,91,79,50,29.87,29.71,0,0,0,0.03
2013-11-27,9.0,7.6,6.1,4.0,-0.2,-4.0,88,74,62,30.01,29.79,0,0,0,0.00
2013-11-28,11.3,8.5,6.3,0.0,-3.3,-8.0,71,61,47,30.23,29.95,0,0,0,0.02
2013-11-29,11.5,9.9,8.5,1.0,-1.2,-4.0,71,63,54,30.40,30.20,0,0,0,0.00
2013-11-30,18.1,13.3,9.1,4.0,1.7,-1.0,77,63,45,30.20,29.83,0,0,0,0.00
2013-12-1,15.6,12.9,10.3,10.0,5.8,3.0,89,77,66,29.86,29.74,0,0,0,0.00
2013-12-2,12.8,11.6,10.1,9.0,4.9,0.0,91,78,60,29.74,29.54,0,0,0,0.07
2013-12-3,17.2,13.8,11.6,14.0,10.5,9.0,93,91,86,29.55,29.45,0,0,0,0.05
2013-12-4,20.8,17.9,15.7,17.0,14.2,10.0,94,89,80,29.53,29.30,0,0,0,0.01
2013-12-5,15.9,8.6,6.5,10.0,0.1,-5.0,82,71,60,29.97,29.39,0,0,0,0.00
2013-12-6,8.0,6.1,4.8,1.0,-2.1,-6.0,75,72,65,30.23,29.94,0,0,0,0.00
2013-12-7,6.0,4.1,1.6,-2.0,-4.1,-6.0,85,72,65,30.40,30.23,0,0,0,0.00
2013-12-8,8.8,6.8,2.6,6.0,0.9,-3.0,93,81,66,30.33,29.69,0,0,0,0.00
2013-12-9,9.6,5.1,-0.7,6.0,-2.3,-11.0,93,75,58,29.98,29.68,0,0,0,0.00
2013-12-10,3.2,-0.6,-6.0,-8.0,-10.1,-13.0,81,67,56,30.06,29.78,0,0,0,0.00
2013-12-11,2.7,0.4,-6.1,-2.0,-6.9,-15.0,89,75,54,30.30,30.04,0,0,0,0.00
2013-12-12,1.6,-3.8,-11.3,-4.0,-12.0,-17.0,82,71,55,30.31,29.99,0,0,0,0.00
2013-12-13,6.0,3.0,-0.4,2.0,-4.6,-9.0,92,74,60,29.98,29.86,0,0,0,0.01
2013-12-14,6.5,4.4,3.0,3.0,1.1,-2.0,93,90,85,29.88,29.60,0,0,0,0.00
2013-12-15,7.0,2.0,-1.1,3.0,-4.1,-9.0,90,79,66,29.88,29.67,0,0,0,0.00
2013-12-16,2.9,0.1,-2.8,0.0,-5.3,-9.0,92,81,70,29.91,29.76,0,0,0,0.00
2013-12-17,6.5,3.4,1.0,0.0,-1.6,-5.0,93,84,66,29.83,29.68,0,0,0,0.00
2013-12-18,10.8,4.0,-0.3,2.0,-4.9,-8.0,81,70,55,29.94,29.63,0,0,0,0.00
2013-12-19,11.6,10.1,8.9,8.0,4.5,2.0,93,81,68,29.70,29.55,0,0,0,0.27
2013-12-20,12.6,10.0,8.4,11.0,7.8,6.0,96,95,93,29.55,29.44,0,0,0,0.28
2013-12-21,10.3,8.7,7.9,8.0,6.7,6.0,97,96,94,29.59,29.23,0,0,0,0.64
2013-12-22,10.7,9.8,9.1,8.0,7.2,5.0,96,93,87,29.86,29.29,0,0,0,0.15
2013-12-23,9.2,2.5,-6.5,5.0,-3.3,-12.0,89,80,60,30.20,29.85,0,0,0,0.00
2013-12-24,2.4,-2.7,-7.1,-3.0,-8.7,-13.0,83,79,72,30.31,30.17,0,0,0,0.00
2013-12-25,8.8,6.8,2.4,6.0,1.9,-4.0,93,84,72,30.17,29.86,0,0,0,0.00
2013-12-26,9.8,6.6,1.9,6.0,0.2,-6.0,90,78,68,30.07,29.87,0,0,0,0.00
2013-12-27,10.4,8.7,6.4,5.0,3.5,2.0,90,83,75,30.07,29.98,0,0,0,0.01
2013-12-28,14.8,12.3,9.4,5.0,3.1,1.0,81,70,58,29.89,29.64,0,0,0,0.00
2013-12-29,12.3,9.2,4.7,7.0,3.7,-1.0,91,82,72,29.92,29.54,0,0,0,0.00
2013-12-30,4.8,0.8,-1.0,-1.0,-5.3,-9.0,86,78,70,30.07,29.92,0,0,0,0.00
2013-12-31,2.0,-1.0,-4.1,-1.0,-6.0,-11.0,90,83,70,30.11,29.93,0,0,0,0.00
2014-1-1,3.7,2.7,1.3,0.0,-1.4,-3.0,90,87,80,30.06,29.93,0,0,0,0.00
2014-1-2,2.6,-0.3,-3.0,-1.0,-7.7,-15.0,88,74,54,30.14,29.86,0,0,0,0.00